LiveATC.Net - Listen to live air traffic control over the Internet!


ICAO: CYHU  IATA: YHU   Airport: Saint-Hubert Airport
City: Montreal   State/Province: Quebec
Country: Canada   Continent: North America
CYHU METAR Weather: CYHU 221900Z AUTO 07005KT 050V170 9SM BKN130 BKN210 24/12 A2999 RMK SLP158 DENSITY ALT 1200FT
CYHU ADS-B Flight Tracking  (ADSBExchange)
CYHU Flight Activity (FlightAware)
CYHU Webcam:  (Airport Webcams) 

CYHU Tower
Feed Status: UP   Listeners: 2
Listen in your browser - HTML5 player (in browser, HTML5)
Click here to listen with your own player (launches your MP3 player)
Archive Access: CYHU Tower
FacilityFrequency
Saint-Hubert Tower118.400
Saint-Hubert Tower121.300

NOTICE

Unauthorized use prohibited. See LiveATC.net Terms of Service


Airport/ARTCC Code
Frequency Search
(e.g., 124.400, 128.75)
Site-wide search
 


Browse Feeds
Top 50 Feeds
HF Oceanic Feeds
Coverage Map
Bad Weather Areas

LiveATC FAQ

Increase Coverage

Contact LiveATC.net
Press Inquiries

LiveATC on iPhone
LiveATC on Android

LiveATC Mobile
(Mobile browser)

ATC Audio Archives
Interesting Recordings

LiveATC Forums


Home Page
About LiveATC.net


Terms of Use
Privacy Policy

AIRMETs/SIGMETs

FAA Airport Status
NAS Status
Arrival Demand


Server Software By:
Icecast.org
Liquidsoap